Regional Weather Roundup
Issued by NWS Northern Indiana

Home | Current Version | Previous Version | Graphics & Text | Print | Product List | Glossary On
Versions: 1 2 3 4 5 6 7 8 9 10 11 12 13 14 15 16 17 18 19 20 21 22 23 24 25 26 27 28 29 30 31 32 33 34 35 36 37 38 39 40 41 42 43 44 45 46 47 48 49 50
000
ASUS43 KIWX 221310
RWRIWX

KIWX WEATHER ROUNDUP
NATIONAL WEATHER SERVICE NORTHERN INDIANA
900 AM EDT MON SEP 22 2014

NOTE: "FAIR" INDICATES FEW OR NO CLOUDS BELOW 12,000 FEET WITH NO
SIGNIFICANT WEATHER AND/OR OBSTRUCTIONS TO VISIBILITY.

* THESE STATIONS ARE NOT UNDER NWS QUALITY CONTROL. THEY ALSO MAY NOT
  REPORT WEATHER SUCH AS PRECIPITATION OR FOG.

INZ001>027-221400-
NORTHERN INDIANA

CITY           SKY/WX    TMP DP  RH WIND       PRES   REMARKS
GARY*          PTSUNNY   55  43  62 N10       30.25R
VALPARAISO     CLOUDY    49  43  80 E7        30.26R
MICHIGAN CITY* PTSUNNY   48  37  66 CALM      30.26R
LAPORTE*       MOSUNNY   47  38  73 E5        30.25R
KNOX*          CLOUDY    46  41  82 CALM      30.24R
SOUTH BEND     SUNNY     49  40  71 N3        30.25R
ELKHART*       SUNNY     46  39  76 CALM      30.24R
GOSHEN         SUNNY    N/A N/A N/A N8        30.23R
MONTICELLO*    PTSUNNY   47  46  97 E3        30.25R
LOGANSPORT*    SUNNY     45  41  87 N5        30.26R
ROCHESTER*     SUNNY     46  43  87 N3        30.25R
WARSAW*        SUNNY     45  37  76 N6        30.24R
ANGOLA*        SUNNY     46  36  66 VRB5      30.21R
FORT WAYNE     PTSUNNY   48  39  71 N10G16    30.23R
HUNTINGTON*    CLOUDY    46  39  77 N7        30.23R
PERU/GRISSOM   SUNNY     47  46  96 N6        30.24R
MARION*        SUNNY     46  37  71 N8        30.24R

$$
INZ028>050-221400-
CENTRAL INDIANA

CITY           SKY/WX    TMP DP  RH WIND       PRES   REMARKS
LAFAYETTE      MOSUNNY   49  46  90 NE3       30.26R
KOKOMO*        SUNNY     46  39  76 N6        30.25R
MUNCIE*        CLOUDY    46  40  79 N7        30.23R
INDIANAPOLIS   MOSUNNY   50  44  80 N10       30.22R

$$
MIZ043>046-050>051-056>058-064>065-071>073-077>080-221400-
SOUTHWEST LOWER MICHIGAN

CITY           SKY/WX    TMP DP  RH WIND       PRES   REMARKS
BATTLE CREEK   SUNNY     47  39  74 NW7       30.22R
BENTON HARBOR  MOSUNNY   47  40  76 CALM      30.24R
COLDWATER*     SUNNY     47  41  77 NW7       30.21R
HILLSDALE*     SUNNY     47  41  80 NW8       30.19R
HOLLAND        SUNNY     51  42  71 VRB3      30.23R
GRAND RAPIDS   MOSUNNY   48  40  73 NW8       30.22R
KALAMAZOO      SUNNY     47  39  74 NW8       30.23R
STURGIS*       SUNNY     45  39  81 NW6       30.22R
THREE RIVERS*  FAIR      46  41  81 N6        30.24R

$$
OHZ001>008-015>018-024>025-221400-
NORTHWEST OHIO

CITY           SKY/WX    TMP DP  RH WIND       PRES   REMARKS
WAUSEON*       FAIR      48  39  71 NW7       30.20R
DEFIANCE       CLOUDY   N/A N/A N/A N5        30.21R
FINDLAY        CLOUDY    49  38  65 N12       30.19R
TOLEDO EXPRESS CLOUDY    48  37  65 N10       30.19R
TOLEDO METCALF CLOUDY    49  36  61 N7        30.20R
LIMA           CLOUDY    49  38  65 N7        30.20R

$$
AND FOR LAKE MICHIGAN COASTAL AND OPEN LAKE BUOY OBSERVATIONS

STATION/POSITION TEMP    WIND        PRES    VSBY  WAVE
                 AIR SEA DIR/SP/G                  HT/PER
                 (F)     (DEG/KT/KT) (MB)    (MI)  (FT/S)
CALUMET HARBOR    50     270/  2/  5 1023.2S
MICHIGAN CITY     49      90/  5/  7   N/A
SAINT JOSEPH      49      CALM  /  1 1024.4S
SOUTH LAKE BUOY   53 61  340/ 12/ 16 1024.0R         5/ 8
4 MI NW BRIDGMAN  51 65   90/  6/  8   N/A           5/ 8
MICHIGAN CITY     51 63  110/  6/ 10   N/A           6/ 7

$$
&&



USA.gov is the U.S. government's official web portal to all federal, state and local government web resources and services.